Regional Weather Roundup
Issued by NWS

Home | Current Version | Previous Version | Text Only | Print | Product List | Glossary Off
Versions: 1 2 3 4 5 6 7 8 9 10 11 12 13 14 15 16 17 18 19 20 21 22 23 24 25 26 27 28 29 30 31 32 33 34 35 36 37 38 39 40 41 42 43 44 45 46 47 48 49 50

727
ASUS43 KLOT 290413
RWRIL

ILLINOIS REGIONAL WEATHER ROUNDUP
NATIONAL WEATHER SERVICE CHICAGO/ROMEOVILLE IL
1100 PM CDT WED SEP 28 2016

NOTE: "FAIR" INDICATES FEW OR NO CLOUDS BELOW 12,000 FEET WITH NO
SIGNIFICANT WEATHER AND/OR OBSTRUCTIONS TO VISIBILITY.

* THESE STATIONS ARE NOT UNDER NWS QUALITY CONTROL. THEY ALSO MAY NOT
  REPORT WEATHER SUCH AS PRECIPITATION OR FOG.

ILZ001-002-007-009-015-016-024-290500-
NORTHWEST ILLINOIS

CITY           SKY/WX    TMP DP  RH WIND       PRES   REMARKS
MOLINE         CLEAR     56  49  77 N10       30.19R
STERLING*      CLEAR     54  50  86 N7        30.17S
SAVANNA*       CLEAR     53  50  87 N6        30.20R
$$

ILZ003-004-008-010-011-017-018-290500-
NORTH CENTRAL ILLINOIS

CITY           SKY/WX    TMP DP  RH WIND       PRES   REMARKS
ROCKFORD       PTCLDY    55  49  80 N13       30.18R
FREEPORT*      CLEAR     51  48  90 N6        30.19S
ROCHELLE*      MOCLDY    53  49  86 N13       30.15R
DE KALB*       MOCLDY    55  49  82 N13G20    30.13S
$$

ILZ005-006-012>014-019>023-290500-
NORTHEAST ILLINOIS

CITY           SKY/WX    TMP DP  RH WIND       PRES   REMARKS
CHICAGO-OHARE  LGT RAIN  58  55  90 N14       30.07S
CHICAGO-MIDWAY CLOUDY    59  55  87 N12       30.06S
AURORA         CLOUDY    58  49  72 N13       30.10R
LANSING*       CLOUDY    59  56  91 NE8       30.04S
JOLIET*        CLOUDY    58  55  91 N9G16     30.08R
WAUKEGAN       CLOUDY    60  55  83 N12G24    30.09R
DUPAGE AIRPORT CLOUDY    58  51  78 N17G26    30.08S
KANKAKEE*      CLOUDY    55  53  94 NW10      30.06R
WHEELING       CLOUDY    58  55  90 N8        30.10R
MORRIS*        RAIN      56  53  89 N5        30.08R
ROMEOVILLE*    CLOUDY    56  56 100 N9G16     30.08R
NORTHERLY ISL    N/A     61  54  77 N14         N/A
$$

LMZ740>746-290500-
SOUTHERN LAKE MICHIGAN

STATION/POSITION SKY/WX   TEMP    WIND        PRES    VSBY  WAVE
                          AIR SEA DIR/SP/G                  HT/PER
                          (F)     (DEG/KT/KT) (MB)    (MI)  (FT/S)
SOUTHERN BUOY              65 69   40/ 23/ 29 1017.7R         7/ 7
WILMETTE HARBOR            63 57   60/ 19/ 25   N/A           8/ 7
HARRISON CRIB              64      40/ 25/ 28   N/A
BURNHAM HARBOR             61      20/ 15/ 20   N/A
CALUMET HARBOR             62      20/ 16/ 21 1017.1R
BURNS HARBOR               62      50/ 19/ 24 1017.3R
MICHIGAN CITY              61      20/ 24/ 26   N/A
MICHIGAN CITY 6N           63 66   40/ 21/ 27   N/A           7/ 7
ST. JOSEPH                 60 65   30/ 16/ 19 1017.4          5/ 6
$$

ILZ025>027-034>036-040-047-049-050-058-095>099-290500-
WEST-CENTRAL ILLINOIS

CITY           SKY/WX    TMP DP  RH WIND       PRES   REMARKS
QUINCY         PTCLDY    55  49  80 NW10      30.17R
GALESBURG*     CLEAR     52  49  88 N5        30.18R
MACOMB*        CLEAR     54  50  86 N9        30.19S
JACKSONVILLE*  MOCLDY    56  49  78 NW9       30.14R
PITTSFIELD*    CLEAR     56  49  78 N9        30.16S
$$

ILZ028>032-037-038-041>044-048-051>054-059>061-290500-
CENTRAL ILLINOIS

CITY           SKY/WX    TMP DP  RH WIND       PRES   REMARKS
PONTIAC        LGT RAIN  56  52  88 NW8       30.09S
BLOOMINGTON    PTCLDY    55  48  77 NW14      30.09F
DECATUR        MOCLDY    57  49  74 N13       30.08S
PEORIA         CLEAR     55  51  86 N7        30.13S
LACON*         CLEAR     54  49  83 NW10      30.11F
LINCOLN*       PTCLDY    56  51  82 N5        30.10S
SPRINGFIELD    PTCLDY    57  50  77 NW9       30.11F
TAYLORVILLE    PTCLDY    55  49  80 NW9       30.10S
$$

ILZ033-039-045-046-055>057-062-063-290500-
EAST-CENTRAL ILLINOIS

CITY           SKY/WX    TMP DP  RH WIND       PRES   REMARKS
CHAMPAIGN      CLOUDY    56  50  80 N9G17     30.06R
RANTOUL*       LGT RAIN  57  53  89 N10G20    30.05S
MATTOON        CLEAR     54  48  80 NW10      30.04F
PARIS*         CLOUDY    53  51  92 CALM      30.04S
$$

ILZ079-100>102-290500-
SOUTHWEST ILLINOIS

CITY           SKY/WX    TMP DP  RH WIND       PRES   REMARKS
BELLEVILLE     CLEAR     55  50  82 NW9       30.10S
CAHOKIA*       CLEAR     59  48  67 NW12      30.12S
SPARTA*        PTCLDY    53  48  82 NW3       30.12S
$$

ILZ064>066-069>071-074>076-080>082-084>086-088>090-092>094-290500-
SOUTH-CENTRAL ILLINOIS

CITY           SKY/WX    TMP DP  RH WIND       PRES   REMARKS
CARBONDALE     CLEAR     53  49  86 NW8       30.10S
CAIRO*         CLEAR     52  47  82 NW3       30.11R
EFFINGHAM*     PTCLDY    55  51  86 W9        30.07S
MARION         CLEAR     55  48  76 NW5       30.10S
MT. VERNON     PTCLDY    52  45  76 CALM      30.08F
CENTRALIA*     CLEAR     56  51  84 W7        30.08S
SALEM*         CLEAR     55  49  82 CALM      30.08S
METROPOLIS*    CLEAR     55  47  75 CALM      30.09S
$$

ILZ067-068-072-073-078-083-087-091-290500-
SOUTHEAST ILLINOIS

CITY           SKY/WX    TMP DP  RH WIND       PRES   REMARKS
LAWRENCEVILLE  CLOUDY    56  49  77 NW8       30.03F
FLORA*         PTCLDY    56  50  80 NW7       30.06S
FAIRFIELD*       N/A     53  49  87 CALM      30.06S
HARRISBURG*    CLEAR     54  49  83 W6        30.08S
ROBINSON*      CLEAR     54  50  86 NW6       30.04S
CARMI*         CLEAR     52  49  89 NW7       30.05F
$$

ABBREVIATIONS USED IN REMARKS
   TC - TEMPERATURE IN CELSIUS
  WCI - WIND CHILL INDEX
   HX - HEAT INDEX
  VSB - VISIBILITY
$$





USA.gov is the U.S. government's official web portal to all federal, state and local government web resources and services.